Showing default

CHINASAT 1D, 49505

Orbit data source: Space-Track

CHINASAT 1D, 49505 is a payload satellite owned by PLA SSF (CN) in GEO that was launched on Fri, 26 Nov 2021 UTC via a CHANG ZHENG 3B launch vehicle from the Xichang Space Center, China (XSC). Payload-class satellites include a variety of spacecraft equipped with specific instruments for various scientific and technological missions. These include communications satellites like Starlink; space stations such as the ISS; scientific satellites like the Hubble; Earth observation satellites from companies like Planet Labs, Umbra, and HawkEye 360; GPS; miniature CubeSats for education and research; and military/defense satellites.

Not visible in the next 10 days
Identifier
49505, 2021-114A
Orbit
GEO
Country
Flag of CNCN / PRC
Related business
Manufacturer
CAST?
Mission
Operational Defense Communications
Bus & Motor
DFH-4?, DFH-4 LAE
Mass
~5,250 kg wet, ~2,500 kg dry
Launch date (UTC)
2021-11-26 (5 years ago)
Launch vehicle
CHANG ZHENG 3B
Launch site
Xichang Space Center, China (XSC)
Object type
Payload
Rocket body
Debris
Shape & HBR
Box + 2 Pan, 15.0 m
Radar Cross Section
34.063 m², Large (>1 m²)

Expand to show TLE details & history
Last TLE update: 6 days ago

TLE from 6 days ago
0 CHINASAT 1D
1 49505U 21114A   26155.30566586 -.00000324  00000-0  00000-0 0  9990
2 49505   0.0559  87.3706 0001030  80.7015 324.8938  1.00269552 16699
Epoch: 2026-06-04T07:20Z
TLE epoch observation values (Epoch: 2026-06-04T07:20:09.530Z)
Latitude
0.0457°
Longitude
130.16289°
Altitude
35,783.171 km
Speed
3.075 km/s
True Right ascension
08h 51m 49s
True Declination
0° 02' 44"
Sunlit
Object was in daylight at epoch
Visualization orbit readout
Latitude
Unknown
Longitude
Unknown
Altitude
Unknown
Speed
Unknown
Apparent Right ascension
Unknown
Apparent Declination
Unknown
Sunlit
N/A
Visualization observer readout
Local Sidereal Time
14:00:40
Azimuth
Unknown
Elevation
Unknown
Doppler factor
Unknown
Orbital elements
Apogee altitude
35,792.634 km
Perigee altitude
35,783.948 km
Semi-major axis
42,166.428 km
Eccentricity
0.0001
Inclination
0.0559°
RAAN
87.3706°
Arg. of periapsis
80.7015°
True anomaly
324.88701°
Mean anomaly
324.8938°
Eccentric anomaly
324.89041°
Mean motion
0.25066 °/min
Orbital period
1,436.18 mins
BSTAR
0
Loading maneuver chart data...
Computing Atmospheric mass density...
Loading historical data...
Loading historical data...
Loading historical data...
Loading historical data...
Loading historical data...
Loading historical data...
Loading historical data...
Other satellites on launch #114 in the year 2021 (2021-11-26 UTC)

Documentation

Showing up to 5 results
|